CW5071 Weather Reports


time (UTC)temp
F
wind
direction
speed
knots
gust
knots
rain 1hr
in
rain 24hr
in
rain mn
in
humidity
%
barometer
mb
20260906165036 99 63 0.0 0.0 0.00 0.00 0.00 32 1014.9
20260906164536 99 63 0.0 0.0 0.00 0.00 0.00 33 1014.9
20260906164022 98 79 0.0 0.0 0.00 0.00 0.00 33 1015.1
20260906163522 98 79 0.0 0.0 0.00 0.00 0.00 38 1015.1
20260906163022 98 79 0.0 0.0 0.00 0.00 0.00 34 1015.1
20260906162522 98 79 0.0 0.0 0.00 0.00 0.00 33 1015.2
20260906162023 97 79 0.9 0.0 0.00 0.00 0.00 34 1015.2
20260906161524 97 79 0.9 0.0 0.00 0.00 0.00 35 1015.2
20260906161027 96 91 0.0 0.0 0.00 0.00 0.00 36 1015.2
20260906160530 96 91 0.0 0.0 0.00 0.00 0.00 37 1015.2
20260906160032 96 91 0.0 0.0 0.00 0.00 0.00 36 1015.2
20260906155534 96 91 0.0 0.0 0.00 0.00 0.00 37 1015.3
20260906155034 95 91 0.0 0.0 0.00 0.00 0.00 37 1015.3
20260906154534 95 91 0.0 0.0 0.00 0.00 0.00 38 1015.3
20260906154019 94 169 0.0 0.0 0.00 0.00 0.00 39 1015.3
20260906153520 94 169 0.0 0.0 0.00 0.00 0.00 40 1015.3
20260906153020 93 169 0.0 0.0 0.00 0.00 0.00 38 1015.3
20260906152520 93 175 0.0 0.0 0.00 0.00 0.00 41 1015.3
20260906152021 91 175 0.0 0.0 0.00 0.00 0.00 42 1015.3
20260906151521 91 177 0.0 0.0 0.00 0.00 0.00 41 1015.3
20260906151024 90 177 0.0 0.0 0.00 0.00 0.00 44 1015.2
20260906150527 89 177 0.0 0.0 0.00 0.00 0.00 44 1015.2
20260906150028 88 177 0.0 0.0 0.00 0.00 0.00 47 1015.2
20260906145527 87 205 0.0 0.0 0.00 0.00 0.00 52 1015.2
20260906145031 86 205 0.0 0.0 0.00 0.00 0.00 55 1015.2
20260906144532 85 205 0.0 0.0 0.00 0.00 0.00 56 1015.2
20260906144033 84 205 0.0 0.0 0.00 0.00 0.00 58 1015.5
20260906143537 83 205 0.0 0.0 0.00 0.00 0.00 62 1015.5
20260906143018 82 205 0.0 0.0 0.00 0.00 0.00 62 1015.5
20260906142521 81 205 0.0 0.0 0.00 0.00 0.00 63 1015.7
20260906142021 80 205 0.0 0.0 0.00 0.00 0.00 67 1015.7
20260906141526 79 205 0.0 0.0 0.00 0.00 0.00 69 1015.7
20260906141027 78 205 0.0 0.0 0.00 0.00 0.00 73 1015.5
20260906140531 77 205 0.0 0.0 0.00 0.00 0.00 78 1015.5
20260906140032 77 205 0.0 0.0 0.00 0.00 0.00 81 1015.5
20260906135532 76 205 0.0 0.0 0.00 0.00 0.00 83 1015.5
20260906135036 75 205 0.0 0.0 0.00 0.00 0.00 84 1015.5
20260906134536 75 205 0.0 0.0 0.00 0.00 0.00 86 1015.5
20260906134020 74 205 0.0 0.0 0.00 0.00 0.00 87 1015.5
20260906133522 74 205 0.0 0.0 0.00 0.00 0.00 88 1015.5
20260906133024 74 205 0.0 0.0 0.00 0.00 0.00 89 1015.5
20260906132523 73 205 0.0 0.0 0.00 0.00 0.00 89 1015.5
20260906132023 72 205 0.0 0.0 0.00 0.00 0.00 89 1015.5
20260906131524 72 205 0.0 0.0 0.00 0.00 0.00 89 1015.5
20260906131026 72 205 0.0 0.0 0.00 0.00 0.00 89 1015.2
20260906130526 71 205 0.0 0.0 0.00 0.00 0.00 89 1015.2
20260906130027 71 205 0.0 0.0 0.00 0.00 0.00 89 1015.2
20260906125527 71 205 0.0 0.0 0.00 0.00 0.00 89 1015.2
20260906125027 71 205 0.0 0.0 0.00 0.00 0.00 89 1015.2
20260906124527 70 205 0.0 0.0 0.00 0.00 0.00 89 1015.2
20260906124027 70 205 0.0 0.0 0.00 0.00 0.00 88 1014.9
20260906123535 70 205 0.0 0.0 0.00 0.00 0.00 88 1014.9
20260906123017 70 205 0.0 0.0 0.00 0.00 0.00 88 1014.9
20260906122522 70 67 0.0 0.0 0.00 0.00 0.00 88 1014.8
20260906122022 70 67 0.0 0.0 0.00 0.00 0.00 88 1014.8
20260906121524 70 67 0.0 0.0 0.00 0.00 0.00 88 1014.8
20260906121024 70 67 0.0 0.0 0.00 0.00 0.00 88 1014.5
20260906120524 70 67 0.0 0.0 0.00 0.00 0.00 88 1014.5
20260906120024 70 67 0.0 0.0 0.00 0.00 0.00 88 1014.5
20260906115524 69 67 0.0 0.0 0.00 0.00 0.00 87 1014.2
20260906115026 69 67 0.0 0.0 0.00 0.00 0.00 87 1014.2
20260906114527 70 67 0.0 0.0 0.00 0.00 0.00 87 1014.2
20260906114032 70 67 0.0 0.0 0.00 0.00 0.00 87 1014.1
20260906113536 70 67 0.0 0.0 0.00 0.00 0.00 87 1014.1
20260906113036 70 67 0.0 0.0 0.00 0.00 0.00 87 1014.1
20260906112536 70 67 0.0 0.0 0.00 0.00 0.00 87 1014.1
20260906112036 70 67 0.0 0.0 0.00 0.00 0.00 87 1014.1
20260906111538 70 67 0.0 0.0 0.00 0.00 0.00 87 1014.1
20260906111019 70 67 0.0 0.0 0.00 0.00 0.00 86 1013.9
20260906110520 70 67 0.0 0.0 0.00 0.00 0.00 86 1013.9
20260906110020 70 67 0.0 0.0 0.00 0.00 0.00 86 1013.9
20260906105520 70 67 0.0 0.0 0.00 0.00 0.00 86 1013.9
20260906105021 70 67 0.0 0.0 0.00 0.00 0.00 86 1013.9
20260906104520 70 67 0.0 0.0 0.00 0.00 0.00 86 1013.9
20260906104023 70 67 0.0 0.0 0.00 0.00 0.00 86 1013.8
20260906103528 70 67 0.0 0.0 0.00 0.00 0.00 86 1013.8
20260906103032 70 67 0.0 0.0 0.00 0.00 0.00 86 1013.8
20260906102532 70 67 0.0 0.0 0.00 0.00 0.00 86 1013.8
20260906102036 70 67 0.0 0.0 0.00 0.00 0.00 86 1013.8
20260906101519 70 67 0.0 0.0 0.00 0.00 0.00 86 1013.8
20260906101022 70 67 0.0 0.0 0.00 0.00 0.00 85 1013.7
20260906100523 70 67 0.0 0.0 0.00 0.00 0.00 85 1013.7
20260906100022 70 67 0.0 0.0 0.00 0.00 0.00 85 1013.7
20260906095523 70 67 0.0 0.0 0.00 0.00 0.00 85 1013.5
20260906095023 71 67 0.0 0.0 0.00 0.00 0.00 85 1013.5
20260906094523 71 67 0.0 0.0 0.00 0.00 0.00 85 1013.5
20260906094025 71 67 0.0 0.0 0.00 0.00 0.00 85 1013.4
20260906093529 71 67 0.0 0.0 0.00 0.00 0.00 85 1013.4
20260906093029 71 67 0.0 0.0 0.00 0.00 0.00 84 1013.4
20260906092530 71 67 0.0 0.0 0.00 0.00 0.00 84 1013.3
20260906092037 71 67 0.0 0.0 0.00 0.00 0.00 84 1013.3
20260906091538 71 67 0.0 0.0 0.00 0.00 0.00 84 1013.3
20260906091038 71 67 0.0 0.0 0.00 0.00 0.00 84 1013.2
20260906090537 71 67 0.0 0.0 0.00 0.00 0.00 84 1013.2
20260906090037 71 67 0.0 0.0 0.00 0.00 0.00 83 1013.2
20260906085537 71 67 0.0 0.0 0.00 0.00 0.00 83 1013.2
20260906085019 71 67 0.0 0.0 0.00 0.00 0.00 83 1013.2
20260906084519 71 67 0.0 0.0 0.00 0.00 0.00 83 1013.2
20260906084019 71 67 0.0 0.0 0.00 0.00 0.00 83 1013.2
20260906083523 72 67 0.0 0.0 0.00 0.00 0.00 82 1013.2
20260906083024 72 67 0.0 0.0 0.00 0.00 0.00 82 1013.2
20260906082527 72 67 0.0 0.0 0.00 0.00 0.00 82 1013.2
20260906082027 72 67 0.0 0.0 0.00 0.00 0.00 82 1013.2
20260906081528 72 67 0.0 0.0 0.00 0.00 0.00 82 1013.2
20260906081028 72 67 0.0 0.0 0.00 0.00 0.00 82 1013.2
20260906080528 72 67 0.0 0.0 0.00 0.00 0.00 81 1013.2
20260906080029 72 67 0.0 0.0 0.00 0.00 0.00 81 1013.2
20260906075528 72 67 0.0 0.0 0.00 0.00 0.00 81 1013.2
20260906075035 72 67 0.0 0.0 0.00 0.00 0.00 81 1013.2
20260906074536 72 67 0.0 0.0 0.00 0.00 0.00 80 1013.2
20260906074037 72 67 0.0 0.0 0.00 0.00 0.00 80 1013.1
20260906073521 72 67 0.0 0.0 0.00 0.00 0.00 80 1013.1
20260906073021 73 67 0.0 0.0 0.00 0.00 0.00 79 1013.1
20260906072522 73 67 0.0 0.0 0.00 0.00 0.00 79 1013.2
20260906072023 73 67 0.0 0.0 0.00 0.00 0.00 79 1013.2
20260906071524 73 67 0.0 0.0 0.00 0.00 0.00 79 1013.2
20260906071027 73 67 0.0 0.0 0.00 0.00 0.00 79 1013.3
20260906070528 73 67 0.0 0.0 0.00 0.00 0.00 78 1013.3
20260906070028 73 67 0.0 0.0 0.00 0.00 0.00 78 1013.3
20260906065535 73 67 0.0 0.0 0.00 0.00 0.00 78 1013.4
20260906065019 73 67 0.0 0.0 0.00 0.00 0.00 78 1013.4
20260906064519 73 67 0.0 0.0 0.00 0.00 0.00 78 1013.4
20260906064019 73 67 0.0 0.0 0.00 0.00 0.00 78 1013.6
20260906063525 73 67 0.0 0.0 0.00 0.00 0.00 77 1013.6
20260906063027 73 67 0.0 0.0 0.00 0.00 0.00 77 1013.6
20260906062528 73 67 0.0 0.0 0.00 0.00 0.00 77 1013.4
20260906062029 74 67 0.0 0.0 0.00 0.00 0.00 77 1013.4
20260906061530 74 67 0.0 0.0 0.00 0.00 0.00 76 1013.4
20260906061031 74 67 0.0 0.0 0.00 0.00 0.00 77 1013.3
20260906060532 74 67 0.0 0.0 0.00 0.00 0.00 76 1013.3
20260906060035 74 67 0.0 0.0 0.00 0.00 0.00 77 1013.3
20260906055535 74 67 0.0 0.0 0.00 0.00 0.00 77 1013.2
20260906055035 74 67 0.0 0.0 0.00 0.00 0.00 76 1013.2
20260906054535 74 67 0.0 0.0 0.00 0.00 0.00 76 1013.2
20260906054035 74 67 0.0 0.0 0.00 0.00 0.00 76 1013.1
20260906053519 74 67 0.0 0.0 0.00 0.00 0.00 76 1013.1
20260906053020 74 67 0.0 0.0 0.00 0.00 0.00 76 1013.1
20260906052520 75 67 0.0 0.0 0.00 0.00 0.00 76 1013.1
20260906052022 75 67 0.0 0.0 0.00 0.00 0.00 76 1013.1
20260906051521 74 67 0.0 0.0 0.00 0.00 0.00 75 1013.1
20260906051022 74 67 0.0 0.0 0.00 0.00 0.00 75 1013.1
20260906050534 75 67 0.0 0.0 0.00 0.00 0.00 75 1013.1
20260906050019 75 67 0.0 0.0 0.00 0.00 0.00 75 1013.1
20260906045520 75 67 0.0 0.0 0.00 0.00 0.00 75 1013.1
20260906045021 75 67 0.0 0.0 0.00 0.00 0.00 75 1013.1
20260906044524 75 67 0.0 0.0 0.00 0.00 0.00 75 1013.1
20260906044025 75 67 0.0 0.0 0.00 0.00 0.00 75 1013.2
20260906043526 75 67 0.0 0.0 0.00 0.00 0.00 74 1013.2
20260906043030 75 67 0.0 0.0 0.00 0.00 0.00 74 1013.2
20260906042530 75 67 0.0 0.0 0.00 0.00 0.00 73 1013.1
20260906042030 75 67 0.0 0.0 0.00 0.00 0.00 73 1013.1
20260906041530 76 67 0.0 0.0 0.00 0.00 0.00 72 1013.1
20260906041030 76 67 0.0 0.0 0.00 0.00 0.00 72 1013.2
20260906040529 76 67 0.0 0.0 0.00 0.00 0.00 72 1013.2
20260906040032 76 67 0.0 0.0 0.00 0.00 0.00 72 1013.2
20260906035534 76 67 0.0 0.0 0.00 0.00 0.00 71 1013.2
20260906035038 77 67 0.0 0.0 0.00 0.00 0.00 71 1013.2
20260906034538 77 67 0.0 0.0 0.00 0.00 0.00 70 1013.2
20260906034038 77 67 0.0 0.0 0.00 0.00 0.00 70 1013.2
20260906033538 77 67 0.0 0.0 0.00 0.00 0.00 69 1013.2
20260906033023 77 67 0.0 0.0 0.00 0.00 0.00 69 1013.2
20260906032526 78 67 0.0 0.0 0.00 0.00 0.00 69 1013.1
20260906032026 78 67 0.0 0.0 0.00 0.00 0.00 68 1013.1
20260906031525 78 67 0.0 0.0 0.00 0.00 0.00 67 1013.1
20260906031026 78 67 0.0 0.0 0.00 0.00 0.00 67 1013.2
20260906030527 79 67 0.0 0.0 0.00 0.00 0.00 66 1013.2
20260906030028 79 67 0.0 0.0 0.00 0.00 0.00 65 1013.2
20260906025529 79 67 0.0 0.0 0.00 0.00 0.00 64 1013.0
20260906025034 79 67 0.0 0.0 0.00 0.00 0.00 64 1013.0
20260906024519 80 67 0.0 0.0 0.00 0.00 0.00 64 1013.0
20260906024020 80 67 0.0 0.0 0.00 0.00 0.00 63 1012.8
20260906023525 80 67 0.0 0.0 0.00 0.00 0.00 63 1012.8
20260906023029 81 67 0.0 0.0 0.00 0.00 0.00 61 1012.8
20260906022516 81 67 0.0 0.0 0.00 0.00 0.00 61 1012.7
20260906022022 81 67 0.0 0.0 0.00 0.00 0.00 59 1012.7
20260906021524 81 67 0.0 0.0 0.00 0.00 0.00 59 1012.7
20260906021024 82 67 0.0 0.0 0.00 0.00 0.00 58 1012.7
20260906020524 82 67 0.0 0.0 0.00 0.00 0.00 58 1012.7
20260906020025 82 67 0.0 0.0 0.00 0.00 0.00 57 1012.7
20260906015525 83 67 0.0 0.0 0.00 0.00 0.00 56 1012.4
20260906015026 83 67 0.0 0.0 0.00 0.00 0.00 55 1012.4
20260906014527 83 67 0.0 0.0 0.00 0.00 0.00 55 1012.4
20260906014027 83 67 0.0 0.0 0.00 0.00 0.00 55 1012.4
20260906013527 83 67 0.0 0.0 0.00 0.00 0.00 55 1012.4
20260906013034 83 67 0.0 0.0 0.00 0.00 0.00 56 1012.4
20260906012536 84 67 0.0 0.0 0.00 0.00 0.00 55 1012.2
20260906012036 84 67 0.0 0.0 0.00 0.00 0.00 55 1012.2
20260906011536 84 67 0.0 0.0 0.00 0.00 0.00 53 1012.2
20260906011036 85 67 0.0 0.0 0.00 0.00 0.00 53 1012.2
20260906010538 86 67 0.0 0.0 0.00 0.00 0.00 51 1012.2
20260906010037 87 67 0.0 0.0 0.00 0.00 0.00 49 1012.2
20260906005519 87 67 0.0 0.0 0.00 0.00 0.00 50 1012.1
20260906005020 88 67 0.0 0.0 0.00 0.00 0.00 49 1012.1
20260906004520 88 67 0.0 0.0 0.00 0.00 0.00 48 1012.1
20260906004020 88 67 0.0 0.0 0.00 0.00 0.00 46 1012.3
20260906003521 88 67 0.0 0.0 0.00 0.00 0.00 45 1012.3
20260906003027 88 67 0.0 0.0 0.00 0.00 0.00 46 1012.3
20260906002527 89 67 0.0 0.0 0.00 0.00 0.00 45 1011.9
20260906002029 90 67 0.0 0.0 0.00 0.00 0.00 45 1011.9
20260906001529 90 67 0.0 0.0 0.00 0.00 0.00 45 1011.9
20260906001029 91 67 0.0 0.0 0.00 0.00 0.00 43 1012.0
20260906000529 91 67 0.0 0.0 0.00 0.00 0.00 44 1012.0
20260906000029 92 67 0.0 0.0 0.00 0.00 0.00 40 1012.0
20260905235529 92 67 0.0 0.0 0.00 0.00 0.00 38 1012.0
20260905235035 93 67 0.0 0.0 0.00 0.00 0.00 38 1012.0
20260905234518 93 67 0.0 0.0 0.00 0.00 0.00 35 1012.0
20260905234020 93 67 0.0 0.0 0.00 0.00 0.00 35 1011.8
20260905233522 94 67 0.0 0.0 0.00 0.00 0.00 35 1011.8
20260905233029 95 67 0.0 0.0 0.00 0.00 0.00 34 1011.8
20260905232530 95 67 0.0 0.0 0.00 0.00 0.00 32 1011.8
20260905232030 96 67 0.0 0.0 0.00 0.00 0.00 31 1011.8
20260905231531 96 67 0.0 0.0 0.00 0.00 0.00 31 1011.8
20260905231037 96 67 0.0 0.0 0.00 0.00 0.00 29 1011.9
20260905230522 97 67 0.0 0.0 0.00 0.00 0.00 27 1011.9
20260905230023 97 67 0.0 0.0 0.00 0.00 0.00 27 1011.9
20260905225522 97 67 0.0 0.0 0.00 0.00 0.00 28 1011.7
20260905225024 97 67 0.0 0.0 0.00 0.00 0.00 25 1011.7
20260905224534 98 67 0.0 0.0 0.00 0.00 0.00 26 1011.7
20260905224036 98 67 0.0 0.0 0.00 0.00 0.00 26 1011.7
20260905223521 98 67 0.0 0.0 0.00 0.00 0.00 26 1011.7
20260905223022 98 67 0.0 0.0 0.00 0.00 0.00 26 1011.7
20260905222523 98 67 0.0 0.0 0.00 0.00 0.00 25 1011.8
20260905222023 98 67 0.0 0.0 0.00 0.00 0.00 25 1011.8
20260905221524 98 67 0.0 0.0 0.00 0.00 0.00 24 1011.8
20260905221023 99 67 0.0 0.0 0.00 0.00 0.00 25 1011.7
20260905220523 99 67 0.0 0.0 0.00 0.00 0.00 24 1011.7
20260905220023 99 67 0.0 0.0 0.00 0.00 0.00 25 1011.7
20260905215523 99 67 0.0 0.0 0.00 0.00 0.00 25 1011.9
20260905215023 99 67 0.0 0.0 0.00 0.00 0.00 24 1011.9
20260905214522 99 67 0.0 0.0 0.00 0.00 0.00 23 1011.9
20260905214025 99 67 0.0 0.0 0.00 0.00 0.00 24 1012.0
20260905213527 99 67 0.0 0.0 0.00 0.00 0.00 25 1012.0
20260905213032 99 67 0.0 0.0 0.00 0.00 0.00 23 1012.0
20260905212532 99 67 0.0 0.0 0.00 0.00 0.00 27 1012.2
20260905212032 99 67 0.0 0.0 0.00 0.00 0.00 26 1012.2
20260905211532 99 294 0.0 0.0 0.00 0.00 0.00 26 1012.2
20260905211034 99 294 0.0 0.0 0.00 0.00 0.00 27 1012.4
20260905210534 99 294 0.0 0.0 0.00 0.00 0.00 27 1012.4
20260905210036 99 292 0.0 0.0 0.00 0.00 0.00 27 1012.4
20260905205519 99 291 0.0 0.0 0.00 0.00 0.00 26 1012.7
20260905205022 99 291 0.0 0.0 0.00 0.00 0.00 28 1012.7
20260905204522 99 291 0.0 0.0 0.00 0.00 0.00 28 1012.7
20260905204026 99 291 0.0 0.0 0.00 0.00 0.00 27 1012.9
20260905203526 98 291 0.0 0.0 0.00 0.00 0.00 28 1012.9
20260905203016 98 291 0.0 0.0 0.00 0.00 0.00 28 1012.9
20260905202519 98 291 0.0 0.0 0.00 0.00 0.00 28 1013.2
20260905202019 98 291 0.0 0.0 0.00 0.00 0.00 28 1013.2
20260905201519 99 291 0.9 0.0 0.00 0.00 0.00 28 1013.2
20260905201020 99 291 0.0 0.0 0.00 0.00 0.00 28 1013.2
20260905200521 99 291 0.0 0.0 0.00 0.00 0.00 28 1013.2
20260905200021 99 292 0.0 0.0 0.00 0.00 0.00 28 1013.2
20260905195521 99 291 0.0 0.0 0.00 0.00 0.00 29 1013.2
20260905195022 99 291 0.0 0.0 0.00 0.00 0.00 28 1013.2
20260905194522 99 291 0.0 0.0 0.00 0.00 0.00 28 1013.2
20260905194021 100 201 0.0 0.0 0.00 0.00 0.00 28 1013.5
20260905193522 99 193 0.0 0.0 0.00 0.00 0.00 28 1013.5
20260905193028 99 57 0.0 0.0 0.00 0.00 0.00 28 1013.5
20260905192534 99 19 0.0 0.0 0.00 0.00 0.00 28 1013.8
20260905192019 98 55 0.9 0.0 0.00 0.00 0.00 28 1013.8
20260905191520 98 86 0.9 0.0 0.00 0.00 0.00 29 1013.8
20260905191021 97 68 0.0 0.0 0.00 0.00 0.00 31 1014.1
20260905190522 97 44 0.0 0.0 0.00 0.00 0.00 31 1014.1
20260905190022 98 44 0.0 0.0 0.00 0.00 0.00 31 1014.1
20260905185522 99 44 0.0 0.0 0.00 0.00 0.00 30 1014.2
20260905185022 99 44 0.0 0.0 0.00 0.00 0.00 29 1014.2
20260905184522 100 43 0.0 0.0 0.00 0.00 0.00 28 1014.2
20260905184022 100 43 0.0 0.0 0.00 0.00 0.00 29 1014.2
20260905183522 99 51 0.0 0.0 0.00 0.00 0.00 28 1014.2
20260905183028 99 49 0.0 0.0 0.00 0.00 0.00 28 1014.2
20260905182538 99 62 0.0 0.0 0.00 0.00 0.00 28 1014.7
20260905182038 98 62 0.0 0.0 0.00 0.00 0.00 30 1014.7
20260905181520 97 56 0.0 0.0 0.00 0.00 0.00 33 1014.7
20260905181021 98 288 0.0 0.0 0.00 0.00 0.00 33 1014.7
20260905180524 98 288 0.0 0.0 0.00 0.00 0.00 31 1014.7
20260905180025 99 289 0.0 0.0 0.00 0.00 0.00 30 1014.7
20260905175526 99 290 0.0 0.0 0.00 0.00 0.00 32 1014.8
20260905175028 98 303 0.0 0.0 0.00 0.00 0.00 31 1014.8
20260905174534 98 303 0.0 0.0 0.00 0.00 0.00 32 1014.8
20260905174035 97 296 0.0 0.0 0.00 0.00 0.00 32 1015.2
20260905173520 97 307 0.0 0.0 0.00 0.00 0.00 35 1015.2
20260905173023 97 296 0.9 0.0 0.00 0.00 0.00 33 1015.2
20260905172523 97 293 0.0 0.0 0.00 0.00 0.00 34 1015.2
20260905172024 97 296 0.0 0.0 0.00 0.00 0.00 36 1015.2
20260905171524 96 296 0.0 0.0 0.00 0.00 0.00 36 1015.2
20260905171025 96 296 0.9 0.0 0.00 0.00 0.00 36 1015.2
20260905170526 97 296 0.9 0.0 0.00 0.00 0.00 35 1015.2
20260905170028 97 198 0.9 0.0 0.00 0.00 0.00 35 1015.2
20260905165528 97 198 0.9 0.0 0.00 0.00 0.00 36 1015.5